CW8986 Weather Reports


time (UTC)temp
F
wind
direction
speed
knots
gust
knots
rain 1hr
in
rain 24hr
in
rain mn
in
humidity
%
barometer
mb
20260506182458 61 20 2.6 10.4 0.00 0.00 0.00 47 1018.7
20260506181958 61 46 2.6 7.8 0.00 0.00 0.00 47 1018.8
20260506181458 60 74 3.5 8.7 0.00 0.00 0.00 48 1018.8
20260506180958 60 348 3.5 8.7 0.00 0.00 0.00 48 1018.9
20260506180456 61 63 2.6 7.8 0.00 0.00 0.00 47 1018.9
20260506175956 61 29 1.7 7.8 0.00 0.00 0.00 47 1018.9
20260506175456 60 65 1.7 7.0 0.00 0.00 0.00 48 1018.9
20260506174954 60 58 2.6 8.7 0.00 0.00 0.00 47 1019.0
20260506174452 60 13 1.7 8.7 0.00 0.00 0.00 47 1019.0
20260506173922 60 28 1.7 7.0 0.00 0.00 0.00 46 1018.9
20260506173422 60 34 2.6 7.0 0.00 0.00 0.00 47 1019.0
20260506172922 60 41 0.9 7.8 0.00 0.00 0.00 46 1019.0
20260506172412 60 24 0.9 7.8 0.00 0.00 0.00 47 1019.0
20260506171910 60 86 1.7 9.6 0.00 0.00 0.00 47 1019.0
20260506171409 60 13 2.6 9.6 0.00 0.00 0.00 46 1018.9
20260506170910 59 50 0.9 8.7 0.00 0.00 0.00 46 1019.0
20260506170410 59 43 0.9 7.0 0.00 0.00 0.00 46 1018.9
20260506165911 59 84 0.9 7.0 0.00 0.00 0.00 45 1018.8
20260506165640 59 20 0.0 0.9 0.00 0.00 0.00 44 1018.7
20260506164903 59 26 0.9 5.2 0.00 0.00 0.00 45 1018.7
20260506164400 59 338 0.9 7.0 0.00 0.00 0.00 45 1018.7
20260506163857 59 0 0.0 6.1 0.00 0.00 0.00 45 1018.7
20260506163629 58 55 0.0 0.0 0.00 0.00 0.00 46 1018.7
20260506162846 58 94 0.0 0.0 0.00 0.00 0.00 46 1018.7
20260506162346 58 40 0.0 0.0 0.00 0.00 0.00 47 1018.7
20260506161845 57 67 0.0 0.0 0.00 0.00 0.00 47 1018.7
20260506161318 56 68 0.0 0.0 0.00 0.00 0.00 47 1018.7
20260506160809 55 44 0.0 0.0 0.00 0.00 0.00 50 1018.7
20260506160306 54 44 0.0 0.0 0.00 0.00 0.00 53 1018.7
20260506155758 53 34 0.0 0.0 0.00 0.00 0.00 54 1018.7
20260506155256 51 149 0.0 0.0 0.00 0.00 0.00 58 1018.7
20260506154753 49 161 0.0 0.0 0.00 0.00 0.00 63 1018.7
20260506154254 48 162 0.0 0.0 0.00 0.00 0.00 75 1018.7
20260506154023 47 162 0.0 0.0 0.00 0.00 0.00 78 1018.7
20260506153252 45 161 0.0 0.0 0.00 0.00 0.00 81 1018.7
20260506152745 44 162 0.0 0.0 0.00 0.00 0.00 85 1018.7
20260506152245 43 161 0.0 0.0 0.00 0.00 0.00 88 1018.8
20260506152016 42 162 0.0 0.0 0.00 0.00 0.00 90 1018.8
20260506151244 41 162 0.0 0.0 0.00 0.00 0.00 93 1018.9
20260506150741 40 161 0.0 0.0 0.00 0.00 0.00 95 1018.8
20260506150237 38 161 0.0 0.0 0.00 0.00 0.00 96 1018.8
20260506145738 37 165 0.0 0.0 0.00 0.00 0.00 96 1018.8
20260506145452 36 165 0.0 0.0 0.00 0.00 0.00 96 1018.8
20260506144941 35 165 0.0 0.0 0.00 0.00 0.00 96 1018.7
20260506144208 34 165 0.0 0.0 0.00 0.00 0.00 96 1018.7
20260506143708 33 165 0.0 0.0 0.00 0.00 0.00 96 1018.7
20260506143159 32 165 0.0 0.0 0.00 0.00 0.00 95 1018.6
20260506142649 32 165 0.0 0.0 0.00 0.00 0.00 95 1018.6
20260506142123 31 165 0.0 0.0 0.00 0.00 0.00 95 1018.5
20260506141842 31 165 0.0 0.0 0.00 0.00 0.00 95 1018.5
20260506141110 30 165 0.0 0.0 0.00 0.00 0.00 95 1018.5
20260506140841 30 165 0.0 0.0 0.00 0.00 0.00 95 1018.4
20260506140109 29 165 0.0 0.0 0.00 0.00 0.00 94 1018.4
20260506135840 29 165 0.0 0.0 0.00 0.00 0.00 94 1018.3
20260506135057 29 165 0.0 0.0 0.00 0.00 0.00 94 1018.0
20260506134525 28 165 0.0 0.0 0.00 0.00 0.00 94 1018.0
20260506134007 28 165 0.0 0.0 0.00 0.00 0.00 94 1017.8
20260506133455 28 165 0.0 0.0 0.00 0.00 0.00 94 1017.8
20260506132951 28 165 0.0 0.0 0.00 0.00 0.00 94 1017.8
20260506132444 28 165 0.0 0.0 0.00 0.00 0.00 94 1017.8
20260506131941 28 165 0.0 0.0 0.00 0.00 0.00 94 1017.7
20260506131419 28 165 0.0 0.0 0.00 0.00 0.00 94 1017.7
20260506130903 28 165 0.0 0.0 0.00 0.00 0.00 94 1017.6
20260506130358 28 165 0.0 0.0 0.00 0.00 0.00 94 1017.6
20260506125845 28 165 0.0 0.0 0.00 0.00 0.00 94 1017.5
20260506125344 28 165 0.0 0.0 0.00 0.00 0.00 94 1017.5
20260506124823 28 165 0.0 0.0 0.00 0.00 0.00 94 1017.5
20260506124323 28 155 0.0 0.0 0.00 0.00 0.00 94 1017.5
20260506123812 28 233 0.0 0.0 0.00 0.00 0.00 94 1017.4
20260506123309 29 217 0.0 0.0 0.00 0.00 0.00 94 1017.3
20260506122809 29 217 0.0 0.0 0.00 0.00 0.00 94 1017.3
20260506122306 29 218 0.0 0.0 0.00 0.00 0.00 94 1017.2
20260506121753 29 218 0.0 0.0 0.00 0.00 0.00 94 1017.0
20260506121518 29 217 0.0 0.0 0.00 0.00 0.00 94 1017.0
20260506120729 29 218 0.0 0.0 0.00 0.00 0.00 94 1017.0
20260506120227 28 218 0.0 0.0 0.00 0.00 0.00 94 1016.9
20260506120208 28 218 0.0 0.0 0.00 0.00 0.00 94 1016.9
20260506115205 28 218 0.0 0.0 0.00 0.00 0.00 94 1016.8
20260506114659 28 218 0.0 0.0 0.00 0.00 0.00 93 1016.8
20260506114153 28 218 0.0 0.0 0.00 0.00 0.00 93 1016.8
20260506113653 28 264 0.0 0.0 0.00 0.00 0.00 93 1016.8
20260506113135 28 264 0.0 0.0 0.00 0.00 0.00 93 1016.8
20260506112615 28 264 0.0 0.0 0.00 0.00 0.00 93 1016.7
20260506112111 28 263 0.0 0.0 0.00 0.00 0.00 93 1016.6
20260506111609 28 264 0.0 0.0 0.00 0.00 0.00 93 1016.6
20260506111337 28 264 0.0 0.0 0.00 0.00 0.00 93 1016.5
20260506110606 28 264 0.0 0.0 0.00 0.00 0.00 93 1016.4
20260506105819 28 264 0.0 0.0 0.00 0.00 0.00 93 1016.4
20260506105028 28 264 0.0 0.0 0.00 0.00 0.00 93 1016.3
20260506105024 28 264 0.0 0.0 0.00 0.00 0.00 93 1016.3
20260506104019 28 264 0.0 0.0 0.00 0.00 0.00 93 1016.3
20260506103510 28 264 0.0 0.0 0.00 0.00 0.00 93 1016.4
20260506103240 28 264 0.0 0.0 0.00 0.00 0.00 93 1016.2
20260506102503 28 264 0.0 0.0 0.00 0.00 0.00 93 1016.1
20260506101950 28 264 0.0 0.0 0.00 0.00 0.00 93 1016.2
20260506101440 28 264 0.0 0.0 0.00 0.00 0.00 93 1016.2
20260506100934 28 264 0.0 0.0 0.00 0.00 0.00 93 1016.1
20260506100423 28 264 0.0 0.0 0.00 0.00 0.00 93 1016.1
20260506095913 28 264 0.0 0.0 0.00 0.00 0.00 92 1016.0
20260506095322 27 264 0.0 0.0 0.00 0.00 0.00 92 1015.8
20260506094817 27 264 0.0 0.0 0.00 0.00 0.00 92 1015.9
20260506094301 27 264 0.0 0.0 0.00 0.00 0.00 92 1015.8
20260506093757 27 264 0.0 0.0 0.00 0.00 0.00 92 1015.8
20260506093236 27 264 0.0 0.0 0.00 0.00 0.00 92 1015.8
20260506092726 27 264 0.0 0.0 0.00 0.00 0.00 92 1015.7
20260506092215 27 264 0.0 0.0 0.00 0.00 0.00 92 1015.7
20260506091713 27 264 0.0 0.0 0.00 0.00 0.00 91 1015.7
20260506091207 27 264 0.0 0.0 0.00 0.00 0.00 91 1015.7
20260506090701 27 264 0.0 0.0 0.00 0.00 0.00 91 1015.7
20260506090202 27 264 0.0 0.0 0.00 0.00 0.00 91 1015.7
20260506085700 27 264 0.0 0.0 0.00 0.00 0.00 91 1015.7
20260506085431 27 264 0.0 0.0 0.00 0.00 0.00 91 1015.7
20260506084646 27 264 0.0 0.0 0.00 0.00 0.00 91 1015.7
20260506084141 27 264 0.0 0.0 0.00 0.00 0.00 91 1015.7
20260506083636 27 264 0.0 0.0 0.00 0.00 0.00 91 1015.7
20260506083345 28 264 0.0 0.0 0.00 0.00 0.00 91 1015.7
20260506082609 28 264 0.0 0.0 0.00 0.00 0.00 91 1015.7
20260506082058 28 264 0.0 0.0 0.00 0.00 0.00 91 1015.7
20260506081554 28 264 0.0 0.0 0.00 0.00 0.00 90 1015.7
20260506081034 28 264 0.0 0.0 0.00 0.00 0.00 91 1015.7
20260506080533 28 264 0.0 0.0 0.00 0.00 0.00 90 1015.7
20260506073349 28 264 0.0 0.0 0.00 0.00 0.00 89 1015.5
20260506072844 28 264 0.0 0.0 0.00 0.00 0.00 89 1015.6
20260506072344 28 264 0.0 0.0 0.00 0.00 0.00 89 1015.5
20260506071841 28 264 0.0 0.0 0.00 0.00 0.00 89 1015.5
20260506071308 28 264 0.0 0.0 0.00 0.00 0.00 89 1015.5
20260506070807 28 264 0.0 0.0 0.00 0.00 0.00 89 1015.3
20260506070238 28 264 0.0 0.0 0.00 0.00 0.00 89 1015.3
20260506062108 29 264 0.0 0.0 0.00 0.00 0.00 87 1014.9
20260506061835 29 264 0.0 0.0 0.00 0.00 0.00 87 1014.7
20260506061334 29 264 0.0 0.0 0.00 0.00 0.00 87 1014.6
20260506060604 29 264 0.0 0.0 0.00 0.00 0.00 87 1014.6
20260506060332 29 264 0.0 0.0 0.00 0.00 0.00 86 1014.4
20260506051004 32 264 0.0 0.0 0.00 0.00 0.00 84 1013.8
20260506050503 32 264 0.0 0.0 0.00 0.00 0.00 84 1013.9
20260506050216 32 264 0.0 0.0 0.00 0.00 0.00 84 1013.8
20260506044908 33 264 0.0 0.0 0.00 0.00 0.00 83 1013.7
20260506044409 33 264 0.0 0.0 0.00 0.00 0.00 83 1013.7
20260506043902 33 264 0.0 0.0 0.00 0.00 0.00 82 1013.7
20260506043400 33 264 0.0 0.0 0.00 0.00 0.00 82 1013.6
20260506042844 34 264 0.0 0.0 0.00 0.00 0.00 82 1013.6
20260506042613 34 264 0.0 0.0 0.00 0.00 0.00 81 1013.6
20260506041808 34 264 0.0 0.0 0.00 0.00 0.00 81 1013.5
20260506041308 35 264 0.0 0.0 0.00 0.00 0.00 80 1013.5
20260506040803 35 264 0.0 0.0 0.00 0.00 0.00 80 1013.2
20260506040256 35 264 0.0 0.0 0.00 0.00 0.00 80 1013.1
20260506035735 36 264 0.0 0.0 0.00 0.00 0.00 79 1013.1
20260506035458 36 264 0.0 0.0 0.00 0.00 0.00 79 1013.0
20260506034933 37 264 0.0 0.0 0.00 0.00 0.00 78 1012.9
20260506034202 37 264 0.0 0.0 0.00 0.00 0.00 78 1012.9
20260506033649 37 264 0.0 0.0 0.00 0.00 0.00 78 1012.8
20260506033150 38 264 0.0 0.0 0.00 0.00 0.00 78 1012.6
20260506032646 38 264 0.0 0.0 0.00 0.00 0.00 77 1012.6
20260506032144 38 264 0.0 0.0 0.00 0.00 0.00 77 1012.5
20260506031638 39 264 0.0 0.0 0.00 0.00 0.00 77 1012.4
20260506031136 39 264 0.0 0.0 0.00 0.00 0.00 77 1012.2
20260506030626 40 264 0.0 0.0 0.00 0.00 0.00 76 1012.1
20260506030111 40 264 0.0 0.0 0.00 0.00 0.00 76 1012.1
20260506025843 41 264 0.0 0.0 0.00 0.00 0.00 75 1011.9
20260506025047 41 263 0.0 0.0 0.00 0.00 0.00 74 1011.8
20260506024523 42 264 0.0 0.0 0.00 0.00 0.00 74 1011.8
20260506024012 42 264 0.0 0.0 0.00 0.00 0.00 73 1011.8
20260506023511 42 264 0.0 0.0 0.00 0.00 0.00 73 1011.7
20260506023009 43 264 0.0 0.0 0.00 0.00 0.00 72 1011.6
20260506022740 43 264 0.0 0.0 0.00 0.00 0.00 71 1011.6
20260506022007 43 264 0.0 0.0 0.00 0.00 0.00 70 1011.6
20260506021500 44 263 0.0 0.0 0.00 0.00 0.00 69 1011.5
20260506020921 44 269 0.0 0.0 0.00 0.00 0.00 69 1011.3
20260506020418 45 270 0.0 0.0 0.00 0.00 0.00 69 1011.4
20260506015915 45 269 0.0 0.0 0.00 0.00 0.00 68 1011.3
20260506015413 45 270 0.0 0.0 0.00 0.00 0.00 68 1011.2
20260506014911 45 265 0.0 1.7 0.00 0.00 0.00 68 1011.1
20260506014408 45 264 0.9 7.0 0.00 0.00 0.00 68 1011.1
20260506013908 45 288 0.9 7.0 0.00 0.00 0.00 67 1011.0
20260506013405 46 342 0.9 7.0 0.00 0.00 0.00 67 1011.0
20260506013136 46 327 0.9 7.0 0.00 0.00 0.00 68 1010.9
20260506012400 46 323 0.0 5.2 0.00 0.00 0.00 69 1010.8
20260506011847 46 277 0.9 7.8 0.00 0.00 0.00 70 1010.8
20260506011346 46 268 1.7 8.7 0.00 0.00 0.00 70 1010.7
20260506011115 47 290 0.9 8.7 0.00 0.00 0.00 68 1010.8
20260506010334 47 286 0.9 6.1 0.00 0.00 0.00 66 1010.8
20260506005833 47 271 0.9 6.1 0.00 0.00 0.00 65 1010.7
20260506005332 47 269 0.0 3.5 0.00 0.00 0.00 65 1010.5
20260506005101 47 277 0.9 4.3 0.00 0.00 0.00 65 1010.4
20260506004936 47 242 0.9 5.2 0.00 0.00 0.00 66 1010.4
20260506003831 47 271 2.6 8.7 0.00 0.00 0.00 67 1010.4
20260506003331 47 308 3.5 9.6 0.00 0.00 0.00 66 1010.5
20260506002831 48 5 2.6 9.6 0.00 0.00 0.00 66 1010.6
20260506002330 48 339 3.5 9.6 0.00 0.00 0.00 66 1010.6
20260506001830 48 355 4.3 9.6 0.00 0.00 0.00 65 1010.6
20260506001328 48 325 3.5 9.6 0.00 0.00 0.00 64 1010.6
20260506000829 49 67 1.7 7.0 0.00 0.00 0.00 62 1010.4
20260506000552 49 43 0.9 6.1 0.00 0.00 0.00 63 1010.4
20260506000426 49 30 0.0 3.5 0.00 0.00 0.00 63 1010.4
20260505235318 48 345 0.9 7.0 0.00 0.00 0.00 63 1010.2
20260505234815 48 303 1.7 7.0 0.00 0.00 0.00 64 1010.2
20260505234314 48 355 0.9 7.8 0.00 0.00 0.00 66 1010.1
20260505233809 48 12 0.9 7.8 0.00 0.00 0.00 67 1010.2
20260505233531 47 302 0.0 0.9 0.00 0.00 0.00 68 1010.3
20260505232802 47 288 0.0 0.9 0.00 0.00 0.00 69 1010.3
20260505232257 46 0 0.9 6.1 0.00 0.00 0.00 70 1010.3
20260505231755 46 5 2.6 7.8 0.00 0.00 0.00 70 1010.4
20260505231252 46 290 3.5 7.8 0.00 0.00 0.00 69 1010.4
20260505230753 46 52 2.6 7.8 0.00 0.00 0.00 69 1010.5
20260505230246 46 348 1.7 7.0 0.00 0.00 0.00 69 1010.5
20260505230010 46 278 2.6 7.8 0.00 0.00 0.00 70 1010.5
20260505225844 46 11 2.6 8.7 0.00 0.00 0.00 70 1010.6
20260505224734 45 9 3.5 8.7 0.00 0.00 0.00 71 1010.6
20260505224229 45 333 5.2 9.6 0.00 0.00 0.00 70 1010.7
20260505223727 45 33 5.2 9.6 0.00 0.00 0.00 70 1010.8
20260505223227 46 10 3.5 8.7 0.00 0.00 0.00 71 1010.8
20260505222726 45 314 4.3 10.4 0.00 0.00 0.00 71 1010.8
20260505222227 45 355 5.2 10.4 0.00 0.00 0.00 70 1010.8
20260505221726 45 308 4.3 9.6 0.00 0.00 0.00 71 1010.9
20260505221226 45 322 4.3 9.6 0.00 0.00 0.00 71 1010.8
20260505220726 46 255 3.5 7.8 0.00 0.00 0.00 72 1010.8
20260505220225 45 253 4.3 11.3 0.00 0.00 0.00 72 1010.7
20260505215726 45 355 5.2 13.9 0.00 0.00 0.00 72 1010.8
20260505215452 45 271 6.1 13.9 0.00 0.00 0.00 72 1010.7
20260505214950 44 336 6.1 13.9 0.00 0.00 0.00 72 1010.7
20260505214220 45 289 5.2 13.0 0.00 0.00 0.00 72 1010.8
20260505213714 45 248 6.1 15.6 0.00 0.00 0.00 72 1010.9
20260505213208 45 296 6.1 15.6 0.00 0.00 0.00 71 1010.8
20260505212929 45 301 6.1 16.5 0.00 0.00 0.00 72 1010.9
20260505212158 45 261 7.8 17.4 0.00 0.00 0.00 71 1010.8
20260505211658 46 349 7.8 17.4 0.00 0.00 0.00 70 1010.9
20260505211157 46 302 7.0 13.9 0.00 0.00 0.00 69 1010.7
20260505210656 46 296 5.2 13.9 0.00 0.00 0.00 71 1010.7
20260505210156 46 302 4.3 10.4 0.00 0.00 0.00 70 1010.7
20260505205656 46 253 4.3 13.9 0.00 0.00 0.00 71 1010.6
20260505205155 45 244 5.2 13.9 0.00 0.00 0.00 72 1010.6
20260505204927 45 345 5.2 10.4 0.00 0.00 0.00 70 1010.6
20260505204156 45 5 3.5 12.2 0.00 0.00 0.00 71 1010.6
20260505203656 45 310 2.6 12.2 0.00 0.00 0.00 71 1010.5
20260505203427 45 325 4.3 8.7 0.00 0.00 0.00 72 1010.6
20260505202656 45 249 2.6 8.7 0.00 0.00 0.00 71 1010.6
20260505202156 45 317 2.6 8.7 0.00 0.00 0.00 70 1010.6
20260505201654 45 286 3.5 8.7 0.00 0.00 0.00 70 1010.5
20260505201147 45 275 4.3 9.6 0.00 0.00 0.00 69 1010.5
20260505200642 46 242 3.5 10.4 0.00 0.00 0.00 69 1010.5
20260505200141 46 310 3.5 10.4 0.00 0.00 0.00 69 1010.4
20260505195642 46 258 3.5 7.8 0.00 0.00 0.00 68 1010.4
20260505195412 47 290 2.6 7.0 0.00 0.00 0.00 67 1010.4
20260505194641 47 263 1.7 7.0 0.00 0.00 0.00 67 1010.3
20260505194138 47 274 0.9 6.1 0.00 0.00 0.00 66 1010.2
20260505193638 46 0 1.7 7.8 0.00 0.00 0.00 64 1010.1
20260505193138 46 310 2.6 7.8 0.00 0.00 0.00 65 1010.1
20260505192629 46 286 1.7 7.0 0.00 0.00 0.00 65 1010.0
20260505192615 46 234 1.7 6.1 0.00 0.00 0.00 64 1009.9
20260505191611 46 300 3.5 8.7 0.00 0.00 0.00 64 1009.9
20260505191342 46 330 2.6 8.7 0.00 0.00 0.00 65 1009.9
20260505190610 46 17 2.6 9.6 0.00 0.00 0.00 65 1010.0
20260505190106 46 314 3.5 9.6 0.00 0.00 0.00 65 1009.9
20260505185605 46 344 3.5 9.6 0.00 0.00 0.00 65 1009.9
20260505185104 46 346 4.3 7.8 0.00 0.00 0.00 65 1009.8
20260505184605 47 338 3.5 9.6 0.00 0.00 0.00 65 1009.9
20260505184057 47 341 3.5 9.6 0.00 0.00 0.00 65 1009.7
20260505183559 46 308 4.3 9.6 0.00 0.00 0.00 66 1009.8
20260505183050 46 323 3.5 9.6 0.00 0.00 0.00 66 1009.8